DW4174 Weather Reports


time (UTC)temp
C
wind
direction
speed
KPH
gust
KPH
rain 1hr
cm
rain 24hr
cm
rain mn
cm
humidity
%
barometer
mb
20260904154927 32 147 9.7 16.1 0.00 0.00 0.00 53 1012.0
20260904154027 32 155 8.0 19.3 0.00 0.00 0.00 53 1011.9
20260904151327 31 134 8.0 19.3 0.00 0.00 0.00 55 1011.9
20260904150427 31 153 4.8 16.1 0.00 0.00 0.00 56 1011.8
20260904145527 31 131 4.8 11.3 0.00 0.00 0.00 56 1011.7
20260904144627 31 145 6.4 16.1 0.00 0.00 0.00 57 1011.6
20260904142827 30 158 4.8 20.9 0.00 0.00 0.00 58 1011.4
20260904141927 30 153 4.8 11.3 0.00 0.00 0.00 60 1011.4
20260904141027 30 151 4.8 14.5 0.00 0.00 0.00 61 1011.2
20260904140127 29 154 3.2 9.7 0.00 0.00 0.00 61 1011.1
20260904135227 29 148 3.2 8.0 0.00 0.00 0.00 61 1011.0
20260904134327 29 159 3.2 9.7 0.00 0.00 0.00 62 1010.9
20260904133427 28 147 1.6 9.7 0.00 0.00 0.00 62 1010.8
20260904132527 28 134 1.6 6.4 0.00 0.00 0.00 62 1010.6
20260904131627 28 128 1.6 8.0 0.00 0.00 0.00 62 1010.5
20260904130727 28 102 1.6 4.8 0.00 0.00 0.00 61 1010.3
20260904125827 28 102 1.6 6.4 0.00 0.00 0.00 61 1010.2
20260904124027 29 91 1.6 6.4 0.00 0.00 0.00 60 1010.0
20260904123127 29 101 1.6 4.8 0.00 0.00 0.00 60 1009.9
20260904122227 29 151 3.2 9.7 0.00 0.00 0.00 59 1009.8
20260904121327 29 152 6.4 14.5 0.00 0.00 0.00 59 1009.7
20260904120427 30 152 6.4 14.5 0.00 0.00 0.00 59 1009.7
20260904115527 29 151 6.4 17.7 0.00 0.00 0.00 59 1009.6
20260904114627 30 152 8.0 14.5 0.00 0.00 0.00 58 1009.6
20260904111926 30 150 4.8 12.9 0.00 0.00 0.00 58 1009.6
20260904111026 30 156 6.4 16.1 0.00 0.00 0.00 57 1009.6
20260904110127 30 155 4.8 16.1 0.00 0.00 0.00 57 1009.6
20260904105227 30 155 4.8 14.5 0.00 0.00 0.00 57 1009.6
20260904104327 30 151 3.2 14.5 0.00 0.00 0.00 57 1009.5
20260904103426 30 155 4.8 12.9 0.00 0.00 0.00 57 1009.5
20260904101627 30 145 3.2 14.5 0.00 0.00 0.00 57 1009.4
20260904100726 30 139 0.0 4.8 0.00 0.00 0.00 56 1009.2
20260904095826 30 158 1.6 6.4 0.00 0.00 0.00 56 1009.2
20260904094926 30 150 1.6 11.3 0.00 0.00 0.00 55 1009.2
20260904094026 30 155 1.6 8.0 0.00 0.00 0.00 56 1009.2
20260904093126 30 148 3.2 12.9 0.00 0.00 0.00 55 1009.2
20260904091327 30 151 3.2 9.7 0.00 0.00 0.00 55 1009.2
20260904090426 30 152 1.6 9.7 0.00 0.00 0.00 55 1009.2
20260904084626 30 151 0.0 4.8 0.00 0.00 0.00 55 1009.2
20260904083726 30 158 1.6 6.4 0.00 0.00 0.00 54 1009.2
20260904082826 30 186 0.0 4.8 0.00 0.00 0.00 54 1009.3
20260904081926 30 174 1.6 6.4 0.00 0.00 0.00 53 1009.3
20260904081026 31 160 1.6 6.4 0.00 0.00 0.00 53 1009.4
20260904080126 31 149 3.2 6.4 0.00 0.00 0.00 53 1009.4
20260904075226 31 161 1.6 9.7 0.00 0.00 0.00 52 1009.3
20260904074326 31 171 1.6 9.7 0.00 0.00 0.00 52 1009.3
20260904072526 31 149 1.6 12.9 0.00 0.00 0.00 52 1009.2
20260904070726 31 153 3.2 11.3 0.00 0.00 0.00 53 1009.1
20260904065826 31 166 3.2 16.1 0.00 0.00 0.00 53 1009.0
20260904064926 31 165 3.2 8.0 0.00 0.00 0.00 53 1008.9
20260904064026 31 160 4.8 11.3 0.00 0.00 0.00 52 1008.8
20260904063126 31 154 6.4 16.1 0.00 0.00 0.00 52 1008.8
20260904061326 32 149 6.4 17.7 0.00 0.00 0.00 50 1008.7
20260904060426 32 169 3.2 12.9 0.00 0.00 0.00 49 1008.6
20260904055526 32 177 3.2 11.3 0.00 0.00 0.00 48 1008.7
20260904054626 32 169 4.8 11.3 0.00 0.00 0.00 48 1008.7
20260904053726 32 183 4.8 9.7 0.00 0.00 0.00 48 1008.7
20260904052826 32 189 4.8 12.9 0.00 0.00 0.00 48 1008.6
20260904051926 32 186 4.8 12.9 0.00 0.00 0.00 47 1008.4
20260904051026 32 173 4.8 12.9 0.00 0.00 0.00 47 1008.4
20260904050126 32 184 6.4 12.9 0.00 0.00 0.00 46 1008.4
20260904045226 32 178 6.4 16.1 0.00 0.00 0.00 45 1008.3
20260904044326 32 184 4.8 12.9 0.00 0.00 0.00 44 1008.4
20260904042526 33 194 3.2 11.3 0.00 0.00 0.00 43 1008.4
20260904041626 33 192 3.2 9.7 0.00 0.00 0.00 43 1008.3
20260904040726 33 171 3.2 11.3 0.00 0.00 0.00 42 1008.1
20260904035826 33 178 1.6 6.4 0.00 0.00 0.00 41 1008.0
20260904034026 33 170 3.2 8.0 0.00 0.00 0.00 41 1007.8
20260904033126 33 156 3.2 11.3 0.00 0.00 0.00 42 1007.7
20260904032226 33 124 1.6 8.0 0.00 0.00 0.00 42 1007.5
20260904031326 33 125 3.2 8.0 0.00 0.00 0.00 42 1007.4
20260904030426 33 145 1.6 9.7 0.00 0.00 0.00 42 1007.2
20260904025526 33 131 1.6 9.7 0.00 0.00 0.00 42 1007.1
20260904024626 33 132 3.2 9.7 0.00 0.00 0.00 42 1007.0
20260904022826 33 145 4.8 16.1 0.00 0.00 0.00 41 1006.9
20260904021026 34 155 11.3 19.3 0.00 0.00 0.00 41 1006.9
20260904020126 34 156 11.3 22.5 0.00 0.00 0.00 40 1007.0
20260904014326 34 163 11.3 22.5 0.00 0.00 0.00 39 1007.0
20260904013426 35 166 12.9 29.0 0.00 0.00 0.00 38 1006.9
20260904012526 35 179 11.3 27.4 0.00 0.00 0.00 37 1006.9
20260904011626 36 199 3.2 27.4 0.00 0.00 0.00 34 1006.6
20260904010726 37 181 4.8 11.3 0.00 0.00 0.00 32 1006.5
20260904005826 37 191 6.4 16.1 0.00 0.00 0.00 32 1006.6
20260904004926 37 188 6.4 16.1 0.00 0.00 0.00 31 1006.6
20260904004026 37 197 4.8 12.9 0.00 0.00 0.00 31 1006.6
20260904003126 37 193 3.2 12.9 0.00 0.00 0.00 31 1006.5
20260904002226 37 248 4.8 12.9 0.00 0.00 0.00 30 1006.5
20260904001325 37 201 6.4 11.3 0.00 0.00 0.00 30 1006.6
20260904000426 37 181 4.8 29.0 0.00 0.00 0.00 31 1006.4
20260903235526 37 154 4.8 14.5 0.00 0.00 0.00 30 1006.7
20260903232825 38 155 4.8 16.1 0.00 0.00 0.00 28 1006.8
20260903231926 38 201 4.8 12.9 0.00 0.00 0.00 29 1006.9
20260903231026 38 140 4.8 17.7 0.00 0.00 0.00 29 1007.0
20260903230125 38 192 3.2 9.7 0.00 0.00 0.00 29 1007.1
20260903225225 39 246 4.8 14.5 0.00 0.00 0.00 28 1007.1
20260903224326 39 244 4.8 14.5 0.00 0.00 0.00 28 1007.4
20260903223426 38 46 3.2 8.0 0.00 0.00 0.00 29 1007.5
20260903222525 38 160 6.4 14.5 0.00 0.00 0.00 30 1007.6
20260903221625 38 106 6.4 16.1 0.00 0.00 0.00 30 1007.7
20260903220725 38 215 6.4 17.7 0.00 0.00 0.00 29 1007.8
20260903215825 38 210 6.4 22.5 0.00 0.00 0.00 29 1007.9
20260903214926 39 303 6.4 16.1 0.00 0.00 0.00 28 1008.0
20260903214025 38 218 8.0 16.1 0.00 0.00 0.00 29 1008.3
20260903213125 38 155 6.4 20.9 0.00 0.00 0.00 30 1008.5
20260903212225 38 121 6.4 19.3 0.00 0.00 0.00 30 1008.6
20260903211325 38 137 6.4 16.1 0.00 0.00 0.00 30 1008.7
20260903210425 38 150 4.8 14.5 0.00 0.00 0.00 30 1008.9
20260903205525 38 187 8.0 19.3 0.00 0.00 0.00 29 1009.1
20260903204625 38 157 8.0 14.5 0.00 0.00 0.00 30 1009.2
20260903203725 38 173 8.0 16.1 0.00 0.00 0.00 29 1009.4
20260903202825 38 190 8.0 16.1 0.00 0.00 0.00 30 1009.6
20260903201925 38 177 8.0 20.9 0.00 0.00 0.00 29 1009.7
20260903201025 38 187 6.4 16.1 0.00 0.00 0.00 31 1009.7
20260903200125 38 158 8.0 17.7 0.00 0.00 0.00 30 1009.8
20260903195225 37 150 4.8 14.5 0.00 0.00 0.00 32 1009.9
20260903194325 36 125 4.8 12.9 0.00 0.00 0.00 32 1010.0
20260903193425 37 189 8.0 12.9 0.00 0.00 0.00 33 1010.2
20260903192525 37 128 6.4 19.3 0.00 0.00 0.00 34 1010.3
20260903191625 37 202 6.4 16.1 0.00 0.00 0.00 34 1010.5
20260903190725 36 148 6.4 19.3 0.00 0.00 0.00 34 1010.7
20260903185825 37 141 6.4 17.7 0.00 0.00 0.00 33 1010.8
20260903184025 36 160 6.4 17.7 0.00 0.00 0.00 36 1011.1
20260903182225 36 156 6.4 19.3 0.00 0.00 0.00 36 1011.4
20260903181325 36 149 6.4 14.5 0.00 0.00 0.00 37 1011.6
20260903180425 35 176 6.4 16.1 0.00 0.00 0.00 37 1011.7
20260903175525 36 160 6.4 19.3 0.00 0.00 0.00 38 1011.8
20260903174625 35 168 6.4 17.7 0.00 0.00 0.00 39 1011.9
20260903173725 35 157 6.4 14.5 0.00 0.00 0.00 41 1011.9
20260903172825 35 132 6.4 16.1 0.00 0.00 0.00 39 1011.9
20260903171925 35 127 6.4 19.3 0.00 0.00 0.00 41 1012.0
20260903171025 35 131 6.4 19.3 0.00 0.00 0.00 42 1012.0
20260903170125 33 107 6.4 16.1 0.00 0.00 0.00 44 1012.0
20260903165225 34 142 4.8 16.1 0.00 0.00 0.00 43 1012.0
20260903164325 33 109 4.8 14.5 0.00 0.00 0.00 43 1012.0
20260903163425 33 162 4.8 14.5 0.00 0.00 0.00 44 1012.0
20260903162525 33 142 4.8 12.9 0.00 0.00 0.00 46 1012.1
20260903161625 33 141 4.8 12.9 0.00 0.00 0.00 46 1012.2
20260903155825 32 163 4.8 11.3 0.00 0.00 0.00 49 1012.3